Back to catalog

METEOR 1-10 DEB

AlivePO
NORAD 8827·DEBRIS·🇷🇺 Russia

Launched Dec 29, 1971 from Plesetsk Cosmodrome

Loading…

Next Passes (next 24 hours)

TLE

FreshSource: Space-Track

Epoch: Sep 14, 2026, 08:53 UTC

1 08827U 71120D   26257.37056156  .00000110  00000-0  48390-4 0  9991
2 08827  81.2642 238.1286 0012926 341.3177  18.7521 14.17083887820760

Track METEOR 1-10 DEB in real time with AllMySat

Download on the App Store